SCP
-0 -0 -0 -0 -0 -0 -0 -0 -0 0 0 0 0 0 0 0 0 0 0 0 0 0 0 0 0 0 0 0 0 0 0 0 0 0 0 0 0 0 0 0 0 0 0
-0 -0 -0 -0 -0 -0 -0 -0 -0 -0 0 0 0 0 0 0 0 0 0 0 0 0 0 0 0 0 0 0 0 0 0 0 0 0 0 0 0 0 0 0 0 0 0
0 -0 -0 -0 -0 -0 -0 -0 -0 -0 0 0 0 0 0 0 0 0 0 0 0 0 0 0 0 0 0 0 0 0 0 0 0 0 0 0 0 0 0 0 0 0 0
0 0 -0 -0 -0 -0 -0 -0 -0 -0 0 0 0 0 0 0 0 0 0 0 0 0 0 0 0 0 0 0 0 0 0 0 0 0 0 0 0 0 0 0 0 0 0
0 0 0 0 0 0 0 0 0 0 0 0 0 0 0 0 0 0 0 0 0 0 0 0 0 0 0 0 0 0 0 0 0 0 0 0 0 0 0 0 0 0 0
0 0 0 0 0 0 0 0 0 0 0 0 0 0 0 0 0 0 0 0 0 0 0 0 0 0 0 0 0 0 0 0 0 0 0 0 0 0 0 0 0 0 0
0 0 0 1 1 1 0 0 0 0 0 0 0 0 0 0 0 0 0 0 0 0 1 1 1 1 1 1 1 1 1 1 0 0 0 0 0 0 0 0 0 0 0
0 0 0 1 1 1 1 1 1 1 1 0 0 0 0 0 0 0 0 0 0 1 1 1 1 1 1 1 1 1 1 1 0 0 0 0 0 0 0 0 0 0 0
0 0 0 0 0 1 1 1 1 1 1 1 1 1 0 0 1 1 1 1 1 1 1 1 1 1 1 1 1 1 1 1 1 0 0 0 0 0 0 0 0 0 0
0 0 0 0 0 0 1 1 1 2 1 1 1 1 1 1 1 1 1 1 1 1 1 1 1 1 1 1 1 1 1 1 1 0 0 0 0 0 0 0 1 0 0
0 0 0 0 0 0 0 0 1 1 1 1 1 1 1 1 1 1 1 1 1 1 1 1 1 1 1 1 1 1 1 1 1 0 0 0 0 0 0 0 0 1 1
0 0 0 0 0 0 0 0 0 0 0 0 0 0 0 0 0 0 0 0 1 1 1 1 1 1 1 1 1 1 1 0 0 0 0 0 0 0 0 0 0 1 1
0 0 0 0 0 0 0 0 0 0 0 0 0 0 0 0 0 0 0 0 0 0 0 1 1 1 1 0 0 0 0 0 0 0 0 0 0 0 0 0 0 0 1
0 0 0 0 0 0 0 0 0 0 0 0 0 0 0 0 0 0 0 0 0 0 0 0 0 0 0 0 0 0 0 0 0 0 0 0 0 0 0 0 0 0 0
0 0 0 0 0 0 0 0 0 0 0 0 0 0 0 0 0 0 0 0 0 0 0 0 0 0 0 0 0 0 0 0 0 0 0 0 0 0 0 0 0 0 0
0 0 0 0 0 0 0 0 0 0 0 0 0 0 0 0 0 0 0 0 0 0 0 0 0 0 0 0 0 0 0 0 0 0 0 0 0 0 0 0 1 1 0
0 0 0 0 0 0 0 0 0 0 0 0 0 0 0 0 0 0 0 0 0 0 0 0 0 0 0 0 0 0 0 0 0 0 0 0 0 0 0 1 1 1 1
0 0 0 0 0 0 0 0 0 0 0 0 0 0 0 0 0 0 0 0 0 0 0 0 0 0 0 0 0 0 0 0 0 0 0 0 0 0 0 1 1 1 1
0 0 0 0 0 0 0 0 0 0 0 0 0 0 0 0 0 0 0 0 0 0 0 0 0 0 0 0 0 0 0 0 0 0 0 0 0 0 0 1 1 1 1
0 0 0 0 0 0 0 0 0 0 0 0 0 0 0 0 0 0 0 0 0 0 0 0 0 0 0 0 0 0 0 0 0 0 0 0 0 0 0 0 0 1 1
0 0 -0 -0 -0 -0 -0 -0 0 0 0 0 0 0 0 0 0 0 0 0 0 0 0 0 0 0 0 0 0 0 0 0 0 0 0 0 0 0 0 0 0 0 0
0 0 -0 -0 -0 -0 0 0 0 0 -0 0 0 0 0 0 0 0 0 0 0 0 0 0 0 0 0 0 0 0 0 0 0 0 0 0 0 0 0 0 0 0 0
-0 -0 -0 0 0 0 0 0 0 0 0 0 0 0 0 0 0 0 0 0 0 0 0 0 0 0 0 0 0 0 0 0 0 0 0 0 0 0 0 0 0 0 0
-0 -0 0 0 0 0 0 0 0 0 0 0 0 0 0 0 0 0 0 0 0 0 0 0 0 0 0 0 0 0 0 0 0 0 0 0 0 0 0 0 0 0 0
-0 0 0 0 0 0 0 0 0 0 0 0 0 0 0 0 0 0 0 0 0 0 0 0 0 0 0 0 0 0 0 0 0 0 0 0 0 0 0 0 0 0 0
0 0 0 0 0 0 0 0 0 0 0 0 0 0 0 0 0 0 0 0 0 0 0 0 0 0 0 0 0 0 0 0 0 0 0 0 0 0 0 0 0 0 0
Wind_Speed
4 5 10 9 9 8 6 4 2 1 1 4 3 2 1 1 2 2 1 1 1 1 1 2 2 2 2 3 3 4 4 4 5 5 5 7 8 9 9 9 8 5 8
2 5 9 8 7 6 5 4 2 1 2 3 2 1 1 2 3 3 3 3 3 3 3 4 4 3 3 3 4 4 4 4 5 5 5 5 7 8 9 9 8 5 8
2 2 3 5 5 4 4 4 3 2 1 1 1 2 3 4 4 5 6 6 7 7 7 6 6 5 4 4 5 5 5 4 4 4 5 3 3 8 8 8 8 8 8
4 3 2 3 4 4 4 5 5 4 4 3 3 3 4 5 6 6 7 7 8 9 9 8 7 6 5 6 6 6 6 5 4 4 2 2 2 7 8 8 8 8 8
6 4 3 2 3 4 5 5 6 6 5 5 5 5 6 6 7 7 8 9 8 8 9 8 8 7 6 6 6 6 7 7 5 3 2 1 1 6 9 9 8 8 8
8 6 5 4 3 4 5 5 6 7 7 7 7 7 7 8 8 8 8 9 7 6 6 6 6 7 6 5 6 6 7 7 5 3 2 2 3 8 10 10 9 9 9
11 10 10 10 8 6 6 6 7 7 7 8 9 7 7 10 10 9 8 8 6 4 4 5 5 5 5 4 5 6 7 6 4 3 3 3 5 11 12 12 11 10 10
18 17 17 21 19 14 9 7 7 7 8 9 9 7 9 10 10 9 9 9 7 6 4 4 5 5 5 4 5 5 6 5 4 4 4 3 7 12 14 13 12 11 10
21 20 18 18 18 20 18 13 11 9 9 9 9 9 10 10 10 10 10 10 8 7 6 6 6 5 5 5 5 5 5 5 3 3 4 3 7 11 13 14 13 12 11
20 20 19 18 18 16 14 19 19 15 13 12 11 9 10 9 9 9 8 9 10 8 8 8 8 7 6 5 5 4 5 4 3 3 3 4 8 12 14 15 15 14 13
22 20 19 19 19 17 16 20 20 20 20 18 12 11 9 5 4 5 6 9 11 10 10 10 9 9 7 6 6 5 4 2 2 3 3 7 11 12 15 16 16 15 14
21 19 18 19 19 17 14 13 12 12 14 15 13 13 8 5 4 5 7 10 11 11 11 12 12 10 7 3 4 5 2 3 3 3 4 10 14 14 15 16 16 16 15
11 16 17 17 16 16 12 11 9 8 10 12 15 16 12 8 5 4 3 4 5 7 6 7 7 4 3 3 3 3 3 3 2 3 4 11 14 16 15 16 17 17 17
15 17 15 15 15 14 12 10 10 9 9 9 12 15 12 8 8 7 4 4 3 2 3 3 3 4 4 4 4 5 5 3 3 3 5 12 14 16 17 17 17 18 18
17 18 17 15 17 14 11 10 11 10 10 9 9 11 12 9 10 9 7 6 5 3 3 3 3 4 4 4 4 5 5 5 5 5 4 11 14 16 18 19 18 19 19
17 17 16 15 17 15 12 9 7 7 8 8 8 11 12 9 9 10 9 7 6 5 3 3 4 4 4 3 5 5 5 5 5 6 6 7 13 16 18 20 20 20 20
14 14 16 15 16 16 14 12 9 6 7 7 8 9 11 11 11 11 9 9 8 7 6 4 4 3 3 4 5 6 5 6 5 6 6 6 6 11 17 20 21 20 20
13 15 15 16 15 14 12 11 9 8 7 6 6 7 10 12 12 11 9 9 10 8 6 5 4 3 4 4 5 5 5 5 6 7 6 6 6 6 10 17 20 20 20
12 13 15 15 16 15 13 10 9 8 7 6 6 6 9 11 12 10 9 8 10 8 7 7 5 4 4 5 5 5 5 5 6 6 6 7 7 7 6 10 16 18 19
11 12 14 16 16 14 11 9 8 8 7 6 6 8 11 10 12 10 8 10 10 8 8 7 8 6 5 5 5 5 5 5 4 5 6 6 6 8 8 7 7 9 16
15 16 17 18 17 15 13 13 13 12 10 9 7 11 13 13 13 11 9 10 10 9 9 10 9 8 6 4 3 4 4 5 5 5 5 5 6 7 7 8 6 5 5
14 14 15 16 16 14 13 12 11 12 10 10 10 12 12 14 14 12 12 11 11 10 11 10 9 7 5 4 4 3 3 3 4 4 3 4 5 4 6 7 7 6 5
15 16 16 16 16 14 16 12 12 10 10 11 12 12 13 16 14 13 12 11 11 10 10 11 10 9 8 6 5 5 4 6 3 2 2 2 3 4 5 5 7 7 6
16 15 15 16 16 15 16 15 17 14 13 14 12 12 15 15 14 13 12 12 11 10 11 12 11 9 9 8 5 5 4 4 4 2 2 1 1 2 3 3 5 6 6
15 15 15 16 15 16 16 16 16 14 13 12 13 14 13 12 11 12 12 10 10 9 11 13 13 12 8 8 6 4 3 2 2 4 3 2 1 1 1 2 3 3 5
12 14 15 16 15 15 16 16 16 17 18 18 17 16 14 12 11 11 13 9 9 9 10 11 12 15 12 10 7 5 5 4 5 4 4 3 2 1 1 1 1 2 3
Wind_Direction
232 219 216 185 188 189 191 186 157 51 191 152 127 96 60 28 26 32 24 87 107 127 180 191 179 171 158 150 147 145 142 132 120 109 118 134 135 134 137 140 130 116 116
190 181 208 188 193 199 202 212 219 0 61 112 104 64 338 318 307 302 295 288 279 263 246 236 222 213 200 179 167 170 171 151 127 107 97 113 132 136 136 138 136 139 133
78 138 212 191 202 215 222 234 245 257 320 23 23 327 303 297 299 301 292 280 269 263 253 244 236 231 219 198 189 189 188 170 147 118 104 105 138 144 140 141 144 142 143
65 65 23 217 224 237 243 248 251 251 260 276 284 284 288 290 289 294 302 300 280 265 257 250 244 238 225 210 201 199 198 183 166 140 124 155 182 164 156 154 152 148 149
54 47 18 277 260 266 263 263 262 256 251 255 254 254 263 273 281 288 296 304 300 274 261 254 248 245 238 223 211 206 205 194 178 162 176 205 242 191 172 167 159 153 153
31 22 2 326 298 287 280 273 270 267 262 264 262 259 266 269 264 270 285 295 303 295 281 271 256 252 253 241 225 222 219 206 181 176 205 233 232 214 184 170 162 159 159
23 15 6 357 339 317 299 286 276 273 270 272 272 263 272 281 273 259 265 274 277 292 306 300 284 270 267 259 244 244 242 223 176 191 218 235 222 214 189 175 170 166 163
27 21 13 6 359 347 325 305 294 285 273 273 283 280 280 277 280 272 263 261 254 258 274 288 293 289 287 284 276 271 272 259 200 202 222 237 232 218 195 182 176 172 169
28 23 16 9 3 356 345 333 320 309 299 289 287 283 287 285 283 288 282 271 260 260 264 268 271 278 285 288 294 292 286 274 225 214 226 229 243 233 208 191 183 180 178
27 24 16 11 8 2 357 355 351 342 331 317 300 284 284 284 281 288 290 278 267 261 258 262 261 258 260 268 279 287 286 287 238 226 230 236 245 245 221 202 193 188 185
24 22 16 14 12 8 11 10 8 7 0 353 336 320 310 301 293 288 282 279 271 263 258 258 257 253 250 253 259 264 280 268 255 241 237 247 253 254 231 212 201 195 191
17 18 18 16 12 11 10 9 6 8 3 2 360 352 340 324 301 290 281 278 275 271 265 261 257 254 249 244 254 260 246 254 256 248 249 260 261 262 244 224 209 201 198
12 18 18 17 15 15 10 8 8 5 3 1 3 1 351 341 329 320 307 298 290 283 272 265 263 252 244 233 235 234 231 237 242 249 253 261 264 266 255 235 217 207 203
18 16 11 15 14 13 12 10 11 7 4 1 358 1 359 351 345 336 322 306 290 278 274 265 253 252 251 247 243 240 234 226 230 239 249 254 259 262 259 243 226 214 207
14 9 5 8 9 5 6 6 11 6 4 357 358 1 2 356 349 340 330 321 308 293 276 272 263 260 257 255 249 242 240 234 234 236 246 248 249 251 255 252 235 223 215
13 8 2 6 6 0 359 357 359 359 357 358 0 360 360 356 350 344 335 327 319 308 285 265 261 261 262 256 256 248 244 240 236 235 236 245 245 246 249 250 245 231 222
10 7 5 3 3 358 353 349 349 345 348 353 354 355 358 356 352 346 339 335 331 319 300 279 262 247 248 246 250 250 245 241 237 237 235 234 241 243 244 246 246 235 225
7 4 2 359 356 351 346 342 339 338 339 341 342 349 354 353 351 345 337 333 331 324 308 290 271 259 250 241 243 245 239 238 238 236 231 228 229 236 240 241 241 237 228
4 0 358 355 353 348 342 338 332 329 332 333 337 346 349 349 348 341 329 326 328 323 314 300 284 253 253 251 246 244 234 231 235 237 233 229 225 226 229 237 236 234 227
0 359 356 355 353 348 345 339 334 331 330 329 332 344 343 342 341 335 325 326 325 322 320 312 295 274 247 246 253 249 238 232 230 232 236 234 227 225 224 226 231 232 228
-0 360 358 356 352 353 352 348 343 339 337 334 335 340 335 336 335 330 328 325 323 317 312 307 299 285 266 237 238 260 261 242 234 232 230 232 231 227 222 221 221 219 224
353 354 355 354 350 353 352 344 338 331 330 332 334 332 333 335 331 330 328 323 319 316 312 310 306 291 275 227 208 225 266 289 255 235 230 229 233 225 221 218 214 213 210
352 352 351 349 348 353 353 346 341 336 335 338 336 333 335 332 329 326 324 322 318 315 311 310 304 292 283 267 220 199 199 223 245 264 235 230 235 225 226 219 213 211 209
349 347 348 347 348 355 354 349 347 344 339 335 330 326 326 324 322 322 321 318 315 314 310 308 307 298 283 274 252 229 222 189 178 217 261 239 217 222 232 231 223 217 209
346 349 349 345 350 354 351 347 345 340 336 330 329 325 324 318 310 308 308 307 307 306 304 304 306 299 285 269 254 228 219 235 200 162 202 234 228 205 241 239 226 216 205
350 355 349 346 349 352 348 346 343 340 337 333 333 330 329 324 319 312 310 300 296 295 296 298 297 294 286 271 257 231 203 186 189 173 170 187 206 243 293 289 218 202 190